TIME,DELAY(SENSOR),PRES,OXYGEN,RAWTEMP,T(OPTODE),TCPHASE,FLUOR,BETA(BETA700),BETA(BETA412),BETA(BETA440),CDOM,C(CSC),ED(ED411.90),ED(ED443.80),ED(ED489.40),ED(ED554.70),LU(LU412.20),LU(LU443.80),LU(LU489.40),LU(LU555.00),COMP,TILTX,TILTY,CHECK
1360796714,5805,853.6500244140625000,191.6387023925781200,495.0893859863281000,7.6817598342895510,38.3402404785156250,67,187,98,79,80,11926,2146963218,2147517449,2147296704,2147508662,2147088374,2146922541,2147720064,2147123264,1998,-1,9,55083
1360800310,5805,934.8300170898438000,245.6309967041015600,553.9898071289062000,5.8441472053527830,36.3288688659668000,71,192,98,78,81,11916,2146965357,2147519332,2147301101,2147523766,2147089929,2146917138,2147729782,2147120557,1086,-1,8,33764
1360803910,5805,961.4099731445312000,260.3475036621094000,564.5015869140625000,5.5134181976318360,35.8077507019043000,70,194,98,81,81,11905,2146964891,2147518884,2147306112,2147530185,2147089517,2146918866,2147733906,2147119506,2879,-1,9,26014
1360807510,5806,993.1500244140625000,268.6624145507812500,572.5242919921875000,5.2603888511657715,35.5704689025878900,72,195,100,80,80,11898,2146966546,2147517531,2147305115,2147527049,2147087149,2146914093,2147734180,2147120384,3567,0,9,4981
1360811110,5804,1003.4299926757812000,271.2640075683594000,573.9597167968750000,5.2150588035583500,35.4788208007812500,73,196,100,79,81,11897,2146967296,2147519259,2147305298,2147527862,2147091428,2146914404,2147734326,2147117595,3408,0,8,51138
1360814710,5810,1010.5200195312500000,271.6754150390625000,573.9558715820312000,5.2151808738708500,35.4607505798339840,72,202,99,80,81,11902,2146963602,2147519012,2147304155,2147526226,2147088777,2146914578,2147733915,2147124891,43,-1,8,1718
1360818310,5804,1009.5900268554688000,273.5599975585937500,574.8366699218750000,5.1873588562011720,35.3927116394043000,74,195,98,79,82,11898,2146961225,2147516178,2147302025,2147527460,2147091510,2146912539,2147735972,2147119350,3436,-1,9,54562
1360821910,5806,1014.2500000000000000,274.6831970214844000,574.8433837890625000,5.1871471405029300,35.3428192138671900,74,194,98,79,79,11891,2146964937,2147520347,2147302125,2147526244,2147090998,2146913810,2147736978,2147121344,3473,-1,9,50568
1360825510,5803,1019.9400024414062000,273.9101867675781000,574.4000854492188000,5.2011508941650390,35.3685798645019500,73,194,98,79,80,11894,2146960960,2147515017,2147306861,2147527533,2147090230,2146916269,2147734006,2147123492,3538,-1,9,21902
1360829110,5807,1020.0000000000000000,273.9154968261719000,574.2357788085938000,5.2063407897949220,35.3655014038085940,74,196,98,80,80,11896,2146964553,2147518326,2147302171,2147525805,2147089956,2146920347,2147740187,2147118180,3582,-1,9,42684
1360832710,5802,1019.2100219726562000,272.5994873046875000,574.3959960937500000,5.2012810707092285,35.4270896911621100,74,194,99,78,82,11893,2146966272,2147517037,2147303405,2147527552,2147088923,2146918180,2147737334,2147121408,3356,-1,9,3231
1360836310,5805,1022.9899902343750000,273.9190063476562500,574.5297241210938000,5.1970558166503910,35.3705101013183600,74,197,99,79,81,11890,2146962185,2147518134,2147307456,2147528210,2147088996,2146916260,2147736182,2147120109,3315,-1,9,6003
1360839910,5806,1026.3699951171875000,273.7182922363281000,574.1646728515625000,5.2085881233215330,35.3727989196777340,74,197,98,79,81,11890,2146964068,2147518555,2147305261,2147530148,2147087012,2146911396,2147736338,2147119442,3223,-1,9,27703
1360843510,5808,1027.1500244140625000,272.8796997070312500,573.7811279296875000,5.2207012176513670,35.4029197692871100,72,194,99,79,80,11887,2146964150,2147518857,2147304420,2147524854,2147087030,2146918372,2147731190,2147123904,234,0,9,7544
1360847110,5802,1022.5800170898438000,271.8275146484375000,573.6890869140625000,5.2236061096191410,35.4484596252441400,74,196,98,78,80,11888,2146961344,2147518345,2147305325,2147527862,2147088603,2146917275,2147733513,2147120438,3432,-1,9,9933
1360850710,5804,1025.0500488281250000,272.1997985839844000,573.8264770507812000,5.2192668914794920,35.4344902038574200,74,194,99,80,80,11891,2146964461,2147520548,2147303552,2147527872,2147086774,2146920502,2147736694,2147119936,2929,-1,8,35909
1360854310,5803,1029.3100585937500000,271.9190063476562500,572.8032836914062000,5.2515788078308105,35.4284782409668000,74,196,100,80,81,11883,2146962413,2147523218,2147303789,2147521920,2147089883,2146919625,2147735058,2147118793,3360,-1,9,19284
1360857910,5807,1027.1400146484375000,269.3243103027344000,571.9415893554688000,5.2787861824035645,35.5294494628906250,73,201,98,80,82,11889,2146961298,2147519369,2147304155,2147525769,2147090468,2146918354,2147735003,2147121088,3452,-1,9,9251
1360861510,5804,1026.5100097656250000,269.8840942382812500,572.1602172851562000,5.2718849182128910,35.5080909729003900,73,197,100,79,80,11884,2146965056,2147517970,2147303725,2147525796,2147088146,2146915739,2147736082,2147120996,3332,0,9,4558
1360865110,5804,1032.6300048828125000,272.1064147949219000,573.0930175781250000,5.2424340248107910,35.4254188537597660,73,197,99,80,81,11882,2146963273,2147522706,2147303990,2147528036,2147088548,2146918326,2147739254,2147123766,2968,-1,8,52650
1360868710,5806,1025.6999511718750000,271.2629089355469000,573.5040283203125000,5.2294540405273440,35.4708595275878900,72,194,99,83,81,11882,2146962797,2147520457,2147302418,2147524928,2147088594,2146915602,2147735579,2147118939,3554,-1,8,14603
1360872310,5804,1028.1500244140625000,272.2598876953125000,573.5200805664062000,5.2289447784423830,35.4264488220214840,72,206,97,79,81,11882,2146965248,2147518034,2147300461,2147525659,2147088009,2146912841,2147734683,2147121728,3309,-1,9,2301
1360875910,5805,1028.4300537109375000,272.7622985839844000,574.0711059570312000,5.2115421295166020,35.4139595031738300,72,197,98,79,81,11881,2146964132,2147521362,2147301476,2147528146,2147092123,2146911597,2147734226,2147116050,119,-1,9,19060
1360879510,5808,1031.9699707031250000,272.2893981933594000,573.6024780273438000,5.2263431549072270,35.4262008666992200,72,196,97,80,80,11876,2146963355,2147517878,2147303012,2147524854,2147086125,2146915547,2147731995,2147118381,73,-1,9,60040
1360883110,5807,1027.9399414062500000,271.4890136718750000,573.5496826171875000,5.2280101776123050,35.4615516662597660,72,198,99,79,80,11879,2146966646,2147516242,2147303561,2147526208,2147089362,2146916489,2147734820,2147119506,259,-1,8,46881
1360886710,5808,1026.1300048828125000,272.6950988769531000,574.7393798828125000,5.1904320716857910,35.4289016723632800,72,199,98,79,81,11878,2146961600,2147522221,2147303872,2147527241,2147089645,2146912219,2147734957,2147121216,262,-1,9,46027
1360890310,5807,1032.8699951171875000,272.5259094238281000,573.9680786132812000,5.2147960662841800,35.4226493835449200,73,195,98,79,80,11876,2146966390,2147517184,2147305060,2147525184,2147087542,2146914368,2147735716,2147121033,331,-1,8,41259
1360893910,5807,1034.8199462890625000,271.4761962890625000,572.8425292968750000,5.2503428459167480,35.4491386413574200,72,194,97,80,80,11872,2146963995,2147519378,2147305645,2147526198,2147088320,2146913435,2147735780,2147122459,244,0,9,35946
1360897510,5807,1035.1400146484375000,271.2027893066406000,572.8427734375000000,5.2503337860107420,35.4613189697265600,71,195,97,81,81,11871,2146964635,2147519021,2147300992,2147524964,2147090587,2146913810,2147730267,2147119680,57,-1,8,41192
1360901110,5805,1025.8800048828125000,267.9678955078125000,569.5549926757812000,5.3541011810302730,35.5472717285156250,71,200,99,79,81,11866,2146962880,2147517632,2147302528,2147525266,2147090029,2146914587,2147730203,2147123318,2813,-1,8,10251
1360904710,5804,1020.6799926757812000,268.4708862304687500,570.7241821289062000,5.3172087669372560,35.5455818176269500,72,196,100,79,80,11869,2146961819,2147520960,2147302966,2147527396,2147092214,2146915904,2147733622,2147116169,3449,-1,9,26641
1360908310,5802,1023.2299804687500000,267.7702941894531000,569.8687744140625000,5.3442001342773440,35.5619888305664060,72,196,98,79,81,11864,2146963401,2147518354,2147304448,2147526006,2147088676,2146914130,2147733622,2147121362,3184,-1,8,50142
1360911910,5805,1024.0699462890625000,268.0657958984375000,570.0944213867188000,5.3370819091796875,35.5527305603027340,72,197,99,79,81,11858,2146964635,2147516461,2147305874,2147529398,2147089133,2146913078,2147727305,2147118875,2995,-1,9,61000
1360915510,5802,1021.8900146484375000,267.9895019531250000,570.7144165039062000,5.3175182342529300,35.5677909851074200,72,196,100,79,81,11866,2146964891,2147521152,2147301467,2147524333,2147091136,2146913298,2147729462,2147120493,3529,-1,8,16990
1360919110,5806,1024.7900390625000000,268.2139892578125000,570.7625122070312000,5.3160018920898440,35.5582695007324200,72,197,101,81,80,11865,2146963373,2147518336,2147303286,2147526793,2147092534,2146915126,2147732333,2147121426,3510,-1,8,8881
1360922710,5807,1022.0800170898438000,268.2369995117187500,570.4149169921875000,5.3269710540771480,35.5509796142578100,72,197,99,79,80,11862,2146962002,2147519168,2147306605,2147525705,2147092269,2146911542,2147729773,2147119798,3572,-1,9,24795
1360926310,5807,1024.6400146484375000,268.0816040039062500,570.3695068359375000,5.3284029960632320,35.5570106506347660,73,198,100,79,80,11861,2146961737,2147515922,2147304448,2147525193,2147088914,2146912045,2147730148,2147122825,3241,-1,9,37204
1360929910,5810,1025.0500488281250000,267.6911010742187500,570.1314086914062000,5.3359150886535645,35.5702896118164060,72,195,99,79,81,11849,2146962669,2147520429,2147303049,2147523035,2147089280,2146918189,2147730477,2147120393,103,-1,8,27011
1360933510,5806,1028.1800537109375000,264.9103088378906000,568.7249145507812000,5.3802871704101560,35.6723594665527340,72,196,99,81,81,11859,2146964461,2147514797,2147301394,2147527597,2147087570,2146919314,2147731538,2147123035,3529,-1,9,56626
1360937110,5807,1027.2299804687500000,265.0591125488281000,568.1693725585938000,5.3978061676025390,35.6550292968750000,73,199,99,80,80,11829,2146964809,2147523437,2147303908,2147526966,2147087771,2146916406,2147734253,2147120649,88,-1,8,24833
1360939556,5806,1027.8299560546875000,263.8146057128906000,566.9918823242188000,5.4349350929260250,35.6907691955566400,71,197,98,79,81,11854,2146964461,2147520987,2147304246,2147524964,2147088886,2146915126,2147735890,2147120777,3254,-1,9,46342
